This is the latest recevied weather packets stored in our database for station/object KF5JED-13. If no packets are shown the sender has not sent any weather packets the latest 10 day(s).
| Time | Temp. | Humidity | Pressure | Rain* | Wind** | Luminosity | Snow |
|---|---|---|---|---|---|---|---|
| 1778277177 | 27.78° C | 23% | 1010.9 hPa | 0 mm | - | 597 W/m² | - |
| 1778276874 | 27.78° C | 24% | 1011 hPa | 0 mm | - | 614 W/m² | - |
| 1778276571 | 27.78° C | 23% | 1010.9 hPa | 0 mm | - | 636 W/m² | - |
| 1778276268 | 27.78° C | 22% | 1010.9 hPa | 0 mm | - | 638 W/m² | - |
| 1778275964 | 28.33° C | 22% | 1011 hPa | 0 mm | - | 664 W/m² | - |
| 1778275655 | 27.78° C | 21% | 1010.8 hPa | 0 mm | - | 673 W/m² | - |
| 1778275352 | 27.78° C | 22% | 1010.9 hPa | 0 mm | - | 693 W/m² | - |
| 1778275047 | 28.33° C | 21% | 1010.9 hPa | 0 mm | - | 700 W/m² | - |
| 1778274744 | 27.78° C | 22% | 1010.9 hPa | 0 mm | - | 713 W/m² | - |
| 1778274441 | 28.33° C | 22% | 1010.7 hPa | 0 mm | - | 727 W/m² | - |
| 1778274138 | 28.33° C | 23% | 1011 hPa | 0 mm | - | 737 W/m² | - |
| 1778273835 | 28.33° C | 22% | 1011.1 hPa | 0 mm | - | 750 W/m² | - |
| 1778273531 | 28.33° C | 22% | 1011 hPa | 0 mm | - | 764 W/m² | - |
| 1778273227 | 28.33° C | 21% | 1011.1 hPa | 0 mm | - | 769 W/m² | - |
| 1778272924 | 28.33° C | 22% | 1011 hPa | 0 mm | - | 777 W/m² | - |
| 1778272620 | 28.33° C | 21% | 1011 hPa | 0 mm | - | 791 W/m² | - |
| 1778272316 | 28.89° C | 22% | 1011.2 hPa | 0 mm | - | 797 W/m² | - |
| 1778272012 | 28.33° C | 21% | 1011.1 hPa | 0 mm | - | 805 W/m² | - |
| 1778271710 | 27.78° C | 23% | 1011 hPa | 0 mm | - | 813 W/m² | - |
| 1778271406 | 27.78° C | 21% | 1011 hPa | 0 mm | - | 820 W/m² | - |
| 1778271103 | 28.33° C | 22% | 1011.1 hPa | 0 mm | - | 830 W/m² | - |
| 1778270800 | 27.78° C | 22% | 1011.1 hPa | 0 mm | - | 830 W/m² | - |
| 1778270496 | 28.33° C | 23% | 1011.1 hPa | 0 mm | - | 834 W/m² | - |
| 1778270193 | 28.33° C | 24% | 1011 hPa | 0 mm | - | 843 W/m² | - |
| 1778269889 | 28.33° C | 25% | 1011 hPa | 0 mm | - | 846 W/m² | - |
* Rain latest hour (hover to see other rain measurements)
** Current wind speed in m/s (hover to see current wind gust speed)